TITAN 3C TRANSTAGE DEB, 27878

Orbit data source: Space-Track

TITAN 3C TRANSTAGE DEB, 27878 is space debris in HEO originally from a launch on Tue, 21 Dec 1965 UTC launched from the Air Force Eastern Test Range (AFETR). Debris objects in space refer to the collection of defunct objects orbiting the Earth. Examples of debris include non-operational satellites, rocket bodies, and fragments generated from explosions, collisions, or faulty payload assembly.

Loading next visibility...
Identifier
27878, 1965-108BP
Orbit
HEO
Country
Flag of USUS
Related business
Manufacturer
Unknown
Mission
Spacecraft
Bus & Motor
Unknown
Mass
Unknown
Launch date (UTC)
1965-12-21 (60 years ago)
Launch vehicle
Unknown
Launch site
Air Force Eastern Test Range (AFETR)
Object type
Payload
Rocket body
Debris
Shape & HBR
Unknown shape, 0.1 m
Radar Cross Section
Medium (>0.1 m² and <1 m²)

Expand to show TLE details & history
Last TLE update: 2 weeks ago

TLE from 2 weeks ago
0 TITAN 3C TRANSTAGE DEB
1 27878U 65108BP  26151.40641737  .00000425  00000-0  35645-2 0  9995
2 27878  26.2341 130.3046 6692562  75.2265  23.8839  2.84438908125739
Epoch: 2026-05-31T09:45Z
TLE epoch observation values (Epoch: 2026-05-31T09:45:14.460Z)
Latitude
2.33294°
Longitude
-89.74751°
Altitude
6,648.545 km
Speed
6.5 km/s
True Right ascension
20h 21m 53s
True Declination
2° 19' 31"
Sunlit
Object was in daylight at epoch
Visualization orbit readout
Latitude
Unknown
Longitude
Unknown
Altitude
Unknown
Speed
Unknown
Apparent Right ascension
Unknown
Apparent Declination
Unknown
Sunlit
N/A
Visualization observer readout
Local Sidereal Time
03:31:43
Azimuth
Unknown
Elevation
Unknown
Doppler factor
Unknown
Orbital elements
Apogee altitude
28,751.491 km
Perigee altitude
582.392 km
Semi-major axis
21,045.079 km
Eccentricity
0.66926
Inclination
26.2341°
RAAN
130.3046°
Arg. of periapsis
75.2265°
True anomaly
99.50635°
Mean anomaly
23.8839°
Eccentric anomaly
55.47661°
Mean motion
0.71091 °/min
Orbital period
506.39 mins
BSTAR
0.0035645
Loading maneuver chart data...
Computing Atmospheric mass density...

Documentation

Showing up to 5 results
|